FW8288 Weather Reports


Display with metric or nautical units.
time (UTC)temp
F
wind
direction
speed
MPH
gust
MPH
rain 1hr
in
rain 24hr
in
rain mn
in
humidity
%
barometer
mb
20260903151601 87 167 0.0 4.0 0.00 0.00 0.00 77 1015.2
20260903150104 86 0 0.0 4.0 0.00 0.00 0.00 80 1015.4
20260903144614 85 167 0.0 2.0 0.00 0.00 0.00 82 1015.5
20260903143104 84 0 0.0 3.0 0.00 0.00 0.00 83 1015.4
20260903141606 84 0 0.0 2.0 0.00 0.00 0.00 84 1015.5
20260903140106 83 0 0.0 1.0 0.00 0.00 0.00 85 1015.3
20260903134618 82 0 0.0 0.0 0.00 0.00 0.00 87 1015.4
20260903133105 82 0 0.0 2.0 0.00 0.00 0.00 88 1015.4
20260903131603 81 0 0.0 1.0 0.00 0.00 0.00 89 1015.3
20260903130107 81 0 0.0 1.0 0.00 0.00 0.00 89 1015.1
20260903124622 81 167 0.0 2.0 0.00 0.00 0.00 89 1014.8
20260903123102 81 167 0.0 1.0 0.00 0.00 0.00 89 1014.7
20260903121612 81 0 0.0 0.0 0.00 0.00 0.00 89 1014.6
20260903120110 81 0 0.0 2.0 0.00 0.00 0.00 86 1014.5
20260903114604 81 167 1.0 2.0 0.00 0.00 0.00 82 1014.5
20260903113144 81 167 1.0 5.0 0.00 0.00 0.00 82 1014.6
20260903111601 82 167 1.0 4.0 0.00 0.00 0.00 86 1014.5
20260903110109 82 0 0.0 3.0 0.00 0.00 0.00 85 1014.5
20260903104611 82 0 0.0 3.0 0.00 0.00 0.00 84 1014.4
20260903103105 83 167 0.0 2.0 0.00 0.00 0.00 83 1014.2
20260903101603 83 0 0.0 3.0 0.00 0.00 0.00 83 1014.2
20260903094605 83 0 0.0 4.0 0.00 0.00 0.00 84 1014.2
20260903093106 83 0 0.0 2.0 0.00 0.00 0.00 84 1014.2
20260903091613 83 0 0.0 3.0 0.00 0.00 0.00 83 1014.2
20260903090114 83 167 1.0 4.0 0.00 0.00 0.00 83 1014.1
20260903084610 83 167 0.0 3.0 0.00 0.00 0.00 83 1014.3
20260903083112 83 0 1.0 3.0 0.00 0.00 0.00 83 1014.1
20260903081603 83 0 1.0 4.0 0.00 0.00 0.00 82 1014.0
20260903080104 83 167 1.0 4.0 0.00 0.00 0.00 82 1014.1
20260903074601 83 167 1.0 5.0 0.00 0.00 0.00 82 1014.1
20260903073100 83 167 0.0 4.0 0.00 0.00 0.00 82 1014.1
20260903071613 83 167 0.0 2.0 0.00 0.00 0.00 83 1014.1
20260903070106 83 167 0.0 3.0 0.00 0.00 0.00 83 1014.4
20260903064602 83 0 0.0 2.0 0.00 0.00 0.00 83 1014.7
20260903063101 83 0 0.0 1.0 0.00 0.00 0.00 83 1014.8
20260903061605 83 0 0.0 0.0 0.00 0.00 0.00 83 1014.6
20260903060108 84 0 0.0 1.0 0.00 0.00 0.00 82 1015.0
20260903054603 84 0 0.0 2.0 0.00 0.00 0.00 82 1015.0
20260903053101 84 0 0.0 0.0 0.00 0.00 0.00 81 1015.2
20260903051616 84 0 0.0 2.0 0.00 0.00 0.00 82 1015.5
20260903050113 84 167 0.0 2.0 0.00 0.00 0.00 82 1015.7
20260903044602 84 0 0.0 0.0 0.00 0.00 0.00 82 1015.5
20260903043208 84 0 0.0 2.0 0.00 0.00 0.00 82 1015.4
20260903041607 84 167 0.0 2.0 0.00 0.00 0.00 82 1015.3
20260903040105 84 167 0.0 2.0 0.00 0.00 0.00 81 1015.2
20260903034604 84 167 0.0 3.0 0.00 0.00 0.00 80 1015.1
20260903033104 84 167 0.0 3.0 0.00 0.00 0.00 80 1015.0
20260903031603 85 167 1.0 3.0 0.00 0.00 0.00 79 1014.7
20260903030103 85 167 1.0 7.0 0.00 0.00 0.00 78 1014.6
20260903024608 85 0 0.0 2.0 0.00 0.00 0.00 77 1014.4
20260903023103 86 167 0.0 4.0 0.00 0.00 0.00 75 1014.1
20260903021602 86 167 0.0 4.0 0.00 0.00 0.00 73 1013.9
20260903014604 86 167 1.0 6.0 0.00 0.00 0.00 70 1013.5
20260903013110 87 167 1.0 4.0 0.00 0.00 0.00 67 1013.4
20260903011601 88 167 2.0 8.0 0.00 0.00 0.00 65 1013.2
20260903010105 89 168 2.0 11.0 0.00 0.00 0.00 64 1013.1
20260903004607 89 167 2.0 6.0 0.00 0.00 0.00 62 1012.9
20260903003104 90 167 0.0 6.0 0.00 0.00 0.00 59 1012.7
20260903001601 91 167 2.0 11.0 0.00 0.00 0.00 55 1012.4
20260903000103 91 167 3.0 7.0 0.00 0.00 0.00 54 1012.3
20260902234618 92 167 0.0 9.0 0.00 0.00 0.00 55 1012.3
20260902233103 93 167 2.0 6.0 0.00 0.00 0.00 53 1012.5
20260902231613 94 167 2.0 8.0 0.00 0.00 0.00 53 1012.2
20260902230107 94 167 1.0 8.0 0.00 0.00 0.00 53 1012.2
20260902224612 94 167 2.0 6.0 0.00 0.00 0.00 54 1012.2
20260902223102 95 167 2.0 8.0 0.00 0.00 0.00 53 1012.2
20260902221606 96 167 1.0 6.0 0.00 0.00 0.00 52 1012.2
20260902220107 96 166 0.0 5.0 0.00 0.00 0.00 50 1012.1
20260902214603 97 167 2.0 6.0 0.00 0.00 0.00 47 1012.2
20260902213114 98 167 1.0 6.0 0.00 0.00 0.00 48 1012.4
20260902211605 98 167 2.0 5.0 0.00 0.00 0.00 48 1012.6
20260902204600 98 167 3.0 6.0 0.00 0.00 0.00 45 1012.8
20260902203108 98 167 3.0 6.0 0.00 0.00 0.00 45 1012.9
20260902201610 98 0 2.0 6.0 0.00 0.00 0.00 46 1013.0
20260902200135 98 167 2.0 5.0 0.00 0.00 0.00 47 1013.3
20260902194609 99 167 2.0 9.0 0.00 0.00 0.00 46 1013.6
20260902193101 99 167 2.0 7.0 0.00 0.00 0.00 47 1013.7
20260902191609 99 167 1.0 7.0 0.00 0.00 0.00 47 1013.9
20260902190114 98 168 4.0 10.0 0.00 0.00 0.00 47 1014.1
20260902184603 98 167 1.0 6.0 0.00 0.00 0.00 48 1014.3
20260902183109 97 167 3.0 8.0 0.00 0.00 0.00 50 1014.6
20260902181600 97 167 3.0 7.0 0.00 0.00 0.00 50 1014.8
20260902180133 97 169 3.0 10.0 0.00 0.00 0.00 52 1015.1
20260902174600 95 167 2.0 7.0 0.00 0.00 0.00 55 1015.3
20260902173103 94 167 2.0 8.0 0.00 0.00 0.00 58 1015.7
20260902171608 92 167 1.0 9.0 0.00 0.00 0.00 60 1015.9
20260902164604 89 167 2.0 7.0 0.00 0.00 0.00 68 1016.2
20260902163103 88 167 3.0 9.0 0.00 0.00 0.00 70 1016.5
20260902161606 88 166 2.0 8.0 0.00 0.00 0.00 71 1016.4
20260902160112 87 167 1.0 7.0 0.00 0.00 0.00 74 1016.5
20260902154605 86 166 2.0 9.0 0.00 0.00 0.00 76 1016.5
20260902153113 85 165 1.0 7.0 0.00 0.00 0.00 79 1016.3